| time (UTC) | temp F | wind direction | speed knots | gust knots | rain 1hr in | rain 24hr in | rain mn in | humidity % | barometer mb |
| 20260505050616 | 71 | 90 | 1.7 | 2.6 | 0.00 | 0.00 | 0.00 | 73 | 1008.5 |
| 20260505041641 | 72 | 338 | 1.7 | 2.6 | 0.00 | 0.00 | 0.00 | 71 | 1008.5 |
| 20260505040616 | 72 | 180 | 1.7 | 2.6 | 0.00 | 0.00 | 0.00 | 71 | 1008.5 |
| 20260505035640 | 72 | 90 | 1.7 | 3.5 | 0.00 | 0.00 | 0.00 | 71 | 1008.7 |
| 20260505034616 | 72 | 225 | 3.5 | 7.0 | 0.00 | 0.00 | 0.00 | 71 | 1008.5 |
| 20260505033641 | 72 | 135 | 3.5 | 5.2 | 0.00 | 0.00 | 0.00 | 71 | 1008.5 |
| 20260505032616 | 72 | 135 | 0.9 | 2.6 | 0.00 | 0.00 | 0.00 | 71 | 1008.8 |
| 20260505031641 | 72 | 135 | 1.7 | 2.6 | 0.00 | 0.00 | 0.00 | 71 | 1008.7 |
| 20260505030616 | 72 | 135 | 0.9 | 1.7 | 0.00 | 0.00 | 0.00 | 70 | 1008.5 |
| 20260505025640 | 72 | 90 | 1.7 | 2.6 | 0.00 | 0.00 | 0.00 | 70 | 1008.7 |
| 20260505024616 | 73 | 270 | 1.7 | 2.6 | 0.00 | 0.00 | 0.00 | 65 | 1008.8 |
| 20260505023640 | 73 | 135 | 1.7 | 2.6 | 0.00 | 0.00 | 0.00 | 65 | 1008.7 |
| 20260505022617 | 73 | 135 | 3.5 | 6.1 | 0.00 | 0.00 | 0.00 | 65 | 1008.7 |
| 20260505021701 | 73 | 135 | 0.9 | 1.7 | 0.00 | 0.00 | 0.00 | 64 | 1008.5 |
| 20260505020617 | 74 | 158 | 2.6 | 2.6 | 0.00 | 0.00 | 0.00 | 64 | 1008.5 |
| 20260505015641 | 74 | 270 | 2.6 | 2.6 | 0.00 | 0.00 | 0.00 | 63 | 1008.5 |
| 20260505014617 | 74 | 90 | 0.9 | 2.6 | 0.00 | 0.00 | 0.00 | 62 | 1008.5 |
| 20260505013701 | 74 | 45 | 3.5 | 5.2 | 0.00 | 0.00 | 0.00 | 62 | 1008.4 |
| 20260505012616 | 74 | 225 | 2.6 | 2.6 | 0.00 | 0.00 | 0.00 | 62 | 1008.6 |
| 20260505011640 | 75 | 135 | 1.7 | 2.6 | 0.00 | 0.00 | 0.00 | 61 | 1008.6 |
| 20260505010616 | 75 | 135 | 2.6 | 2.6 | 0.00 | 0.00 | 0.00 | 61 | 1008.2 |
| 20260505005640 | 76 | 135 | 0.9 | 0.9 | 0.00 | 0.00 | 0.00 | 60 | 1008.6 |
| 20260505004616 | 76 | 135 | 3.5 | 5.2 | 0.00 | 0.00 | 0.00 | 60 | 1008.5 |
| 20260505003641 | 76 | 90 | 1.7 | 2.6 | 0.00 | 0.00 | 0.00 | 60 | 1008.7 |
| 20260505002617 | 77 | 180 | 2.6 | 5.2 | 0.00 | 0.00 | 0.00 | 58 | 1008.6 |
| 20260505001643 | 78 | 180 | 3.5 | 6.1 | 0.00 | 0.00 | 0.00 | 56 | 1008.8 |
| 20260505000637 | 79 | 135 | 4.3 | 7.8 | 0.00 | 0.00 | 0.00 | 56 | 1008.6 |
| 20260504235641 | 78 | 180 | 4.3 | 8.7 | 0.00 | 0.00 | 0.00 | 56 | 1008.7 |
| 20260504234616 | 78 | 180 | 3.5 | 6.1 | 0.00 | 0.00 | 0.00 | 56 | 1008.8 |
| 20260504233640 | 78 | 90 | 4.3 | 8.7 | 0.00 | 0.00 | 0.00 | 55 | 1008.6 |
| 20260504232616 | 79 | 225 | 2.6 | 3.5 | 0.00 | 0.00 | 0.00 | 54 | 1008.8 |
| 20260504231700 | 80 | 135 | 4.3 | 6.1 | 0.00 | 0.00 | 0.00 | 52 | 1009.2 |
| 20260504230637 | 82 | 135 | 5.2 | 7.8 | 0.00 | 0.00 | 0.00 | 50 | 1009.0 |
| 20260504225641 | 82 | 180 | 4.3 | 10.4 | 0.00 | 0.00 | 0.00 | 48 | 1009.3 |
| 20260504224617 | 82 | 180 | 2.6 | 3.5 | 0.00 | 0.00 | 0.00 | 48 | 1009.2 |
| 20260504223641 | 83 | 45 | 6.1 | 8.7 | 0.00 | 0.00 | 0.00 | 46 | 1009.1 |
| 20260504222616 | 84 | 180 | 4.3 | 7.0 | 0.00 | 0.00 | 0.00 | 46 | 1009.1 |
| 20260504221640 | 84 | 158 | 4.3 | 6.1 | 0.00 | 0.00 | 0.00 | 48 | 1009.3 |
| 20260504220616 | 83 | 0 | 6.1 | 7.8 | 0.00 | 0.00 | 0.00 | 46 | 1009.5 |
| 20260504215640 | 83 | 135 | 5.2 | 7.0 | 0.00 | 0.00 | 0.00 | 47 | 1009.7 |
| 20260504214617 | 83 | 158 | 4.3 | 7.8 | 0.00 | 0.00 | 0.00 | 47 | 1009.7 |
| 20260504213640 | 84 | 225 | 1.7 | 3.5 | 0.00 | 0.00 | 0.00 | 46 | 1009.7 |
| 20260504212617 | 83 | 0 | 2.6 | 4.3 | 0.00 | 0.00 | 0.00 | 46 | 1010.0 |
| 20260504211640 | 84 | 180 | 6.1 | 9.6 | 0.00 | 0.00 | 0.00 | 44 | 1010.1 |
| 20260504210616 | 84 | 135 | 2.6 | 5.2 | 0.00 | 0.00 | 0.00 | 44 | 1010.4 |
| 20260504205640 | 83 | 90 | 3.5 | 4.3 | 0.00 | 0.00 | 0.00 | 44 | 1010.3 |
| 20260504204617 | 83 | 0 | 3.5 | 6.1 | 0.00 | 0.00 | 0.00 | 42 | 1010.7 |
| 20260504203640 | 84 | 90 | 4.3 | 6.1 | 0.00 | 0.00 | 0.00 | 43 | 1011.0 |
| 20260504202616 | 84 | 135 | 4.3 | 7.0 | 0.00 | 0.00 | 0.00 | 43 | 1011.1 |
| 20260504201640 | 85 | 90 | 0.9 | 1.7 | 0.00 | 0.00 | 0.00 | 44 | 1011.3 |
| 20260504200616 | 83 | 180 | 4.3 | 7.0 | 0.00 | 0.00 | 0.00 | 43 | 1011.4 |
| 20260504195640 | 83 | 180 | 2.6 | 3.5 | 0.00 | 0.00 | 0.00 | 43 | 1011.7 |
| 20260504194616 | 83 | 180 | 4.3 | 6.1 | 0.00 | 0.00 | 0.00 | 42 | 1011.7 |
| 20260504193641 | 82 | 225 | 5.2 | 7.8 | 0.00 | 0.00 | 0.00 | 43 | 1011.7 |
| 20260504192617 | 82 | 225 | 4.3 | 5.2 | 0.00 | 0.00 | 0.00 | 42 | 1011.9 |
| 20260504191641 | 82 | 180 | 7.0 | 9.6 | 0.00 | 0.00 | 0.00 | 41 | 1012.3 |
| 20260504190617 | 82 | 225 | 5.2 | 7.8 | 0.00 | 0.00 | 0.00 | 41 | 1012.4 |
| 20260504185641 | 82 | 180 | 6.1 | 9.6 | 0.00 | 0.00 | 0.00 | 41 | 1012.5 |
| 20260504184616 | 82 | 225 | 4.3 | 6.1 | 0.00 | 0.00 | 0.00 | 40 | 1012.3 |
| 20260504183641 | 82 | 158 | 2.6 | 4.3 | 0.00 | 0.00 | 0.00 | 41 | 1012.6 |
| 20260504182616 | 80 | 135 | 3.5 | 5.2 | 0.00 | 0.00 | 0.00 | 43 | 1012.8 |
| 20260504181641 | 80 | 225 | 2.6 | 5.2 | 0.00 | 0.00 | 0.00 | 43 | 1012.8 |
| 20260504180617 | 80 | 180 | 3.5 | 6.1 | 0.00 | 0.00 | 0.00 | 43 | 1013.1 |
| 20260504175641 | 80 | 180 | 4.3 | 7.8 | 0.00 | 0.00 | 0.00 | 44 | 1013.3 |
| 20260504174616 | 80 | 248 | 6.1 | 12.2 | 0.00 | 0.00 | 0.00 | 44 | 1013.6 |
| 20260504173640 | 79 | 135 | 3.5 | 4.3 | 0.00 | 0.00 | 0.00 | 44 | 1013.7 |
| 20260504172616 | 78 | 270 | 3.5 | 6.1 | 0.00 | 0.00 | 0.00 | 43 | 1014.0 |
| 20260504171640 | 78 | 225 | 5.2 | 7.8 | 0.00 | 0.00 | 0.00 | 45 | 1014.2 |
| 20260504170616 | 78 | 180 | 4.3 | 6.1 | 0.00 | 0.00 | 0.00 | 44 | 1014.5 |
| 20260504150616 | 71 | 180 | 2.6 | 4.3 | 0.00 | 0.00 | 0.00 | 55 | 1015.4 |
| 20260504140657 | 68 | 0 | 2.6 | 5.2 | 0.00 | 0.00 | 0.00 | 61 | 1015.5 |
| 20260504130616 | 64 | 0 | 2.6 | 3.5 | 0.00 | 0.00 | 0.00 | 67 | 1015.6 |
| 20260504110616 | 61 | 180 | 2.6 | 4.3 | 0.00 | 0.00 | 0.00 | 70 | 1015.2 |
| 20260504100129 | 61 | 180 | 0.9 | 2.6 | 0.00 | 0.00 | 0.00 | 70 | 1015.4 |
| 20260504090129 | 62 | 225 | 0.9 | 0.9 | 0.00 | 0.00 | 0.00 | 64 | 1015.7 |
| 20260504081104 | 63 | 90 | 0.9 | 1.7 | 0.00 | 0.00 | 0.00 | 59 | 1016.0 |